| time (UTC) | temp F | wind direction | speed MPH | gust MPH | rain 1hr in | rain 24hr in | rain mn in | humidity % | barometer mb |
| 20260504023003 | 38 | 245 | 3.0 | 7.0 | 0.00 | 0.00 | 0.00 | 94 | 1011.9 |
| 20260504021503 | 38 | 244 | 2.0 | 7.0 | 0.00 | 0.00 | 0.00 | 94 | 1012.1 |
| 20260504020005 | 39 | 238 | 7.0 | 10.0 | 0.00 | 0.00 | 0.00 | 95 | 1012.0 |
| 20260504014505 | 39 | 232 | 5.0 | 9.0 | 0.00 | 0.00 | 0.00 | 95 | 1012.1 |
| 20260504013005 | 39 | 222 | 5.0 | 9.0 | 0.00 | 0.00 | 0.00 | 95 | 1012.2 |
| 20260504011505 | 39 | 218 | 7.0 | 9.0 | 0.00 | 0.00 | 0.00 | 95 | 1012.2 |
| 20260504010005 | 38 | 233 | 4.0 | 8.0 | 0.00 | 0.00 | 0.00 | 95 | 1012.2 |
| 20260504004505 | 39 | 285 | 0.0 | 2.0 | 0.00 | 0.00 | 0.00 | 93 | 1012.3 |
| 20260504003026 | 40 | 285 | 1.0 | 4.0 | 0.00 | 0.00 | 0.00 | 93 | 1012.3 |
| 20260504001505 | 41 | 285 | 0.0 | 2.0 | 0.00 | 0.00 | 0.00 | 94 | 1012.3 |
| 20260504000004 | 41 | 285 | 1.0 | 3.0 | 0.00 | 0.00 | 0.00 | 94 | 1012.3 |
| 20260503234505 | 41 | 285 | 2.0 | 3.0 | 0.00 | 0.00 | 0.00 | 94 | 1012.2 |
| 20260503233005 | 41 | 285 | 0.0 | 2.0 | 0.00 | 0.00 | 0.00 | 95 | 1012.3 |
| 20260503231504 | 41 | 285 | 1.0 | 2.0 | 0.00 | 0.00 | 0.00 | 93 | 1012.2 |
| 20260503230006 | 42 | 285 | 3.0 | 4.0 | 0.00 | 0.00 | 0.00 | 93 | 1012.3 |
| 20260503224504 | 43 | 285 | 1.0 | 4.0 | 0.00 | 0.00 | 0.00 | 93 | 1012.4 |
| 20260503223004 | 44 | 285 | 1.0 | 3.0 | 0.00 | 0.00 | 0.00 | 94 | 1012.5 |
| 20260503221504 | 43 | 285 | 0.0 | 2.0 | 0.00 | 0.00 | 0.00 | 94 | 1012.5 |
| 20260503220004 | 43 | 0 | 0.0 | 0.0 | 0.00 | 0.00 | 0.00 | 94 | 1012.5 |
| 20260503214505 | 43 | 285 | 0.0 | 2.0 | 0.00 | 0.00 | 0.00 | 94 | 1012.4 |
| 20260503213004 | 43 | 285 | 0.0 | 2.0 | 0.00 | 0.00 | 0.00 | 94 | 1012.3 |
| 20260503211504 | 43 | 289 | 2.0 | 4.0 | 0.00 | 0.00 | 0.00 | 94 | 1012.4 |
| 20260503210005 | 43 | 286 | 4.0 | 7.0 | 0.00 | 0.00 | 0.00 | 93 | 1012.4 |
| 20260503204504 | 44 | 282 | 3.0 | 4.0 | 0.00 | 0.00 | 0.00 | 93 | 1012.4 |
| 20260503203004 | 44 | 273 | 2.0 | 4.0 | 0.00 | 0.00 | 0.00 | 94 | 1012.3 |
| 20260503201525 | 44 | 251 | 3.0 | 4.0 | 0.00 | 0.00 | 0.00 | 95 | 1012.2 |
| 20260503200025 | 43 | 0 | 0.0 | 0.0 | 0.00 | 0.00 | 0.00 | 95 | 1012.0 |
| 20260503194525 | 42 | 0 | 0.0 | 0.0 | 0.00 | 0.00 | 0.00 | 93 | 1011.9 |
| 20260503193004 | 42 | 0 | 0.0 | 0.0 | 0.00 | 0.00 | 0.00 | 93 | 1011.8 |
| 20260503191504 | 42 | 0 | 0.0 | 0.0 | 0.00 | 0.00 | 0.00 | 92 | 1011.7 |
| 20260503190004 | 43 | 0 | 0.0 | 0.0 | 0.00 | 0.00 | 0.00 | 89 | 1011.6 |
| 20260503184504 | 45 | 154 | 0.0 | 1.0 | 0.00 | 0.00 | 0.00 | 88 | 1011.6 |
| 20260503183025 | 46 | 154 | 2.0 | 3.0 | 0.00 | 0.00 | 0.00 | 88 | 1011.6 |
| 20260503181505 | 47 | 154 | 1.0 | 2.0 | 0.00 | 0.00 | 0.00 | 88 | 1011.6 |
| 20260503180005 | 47 | 154 | 1.0 | 3.0 | 0.00 | 0.00 | 0.00 | 88 | 1011.6 |
| 20260503174525 | 46 | 145 | 2.0 | 3.0 | 0.00 | 0.00 | 0.00 | 88 | 1011.6 |
| 20260503173004 | 46 | 125 | 3.0 | 5.0 | 0.00 | 0.00 | 0.00 | 88 | 1011.5 |
| 20260503171504 | 46 | 106 | 4.0 | 7.0 | 0.00 | 0.00 | 0.00 | 87 | 1011.6 |
| 20260503081504 | 44 | 93 | 6.0 | 10.0 | 0.00 | 0.00 | 0.00 | 89 | 1013.9 |
| 20260503071525 | 44 | 97 | 6.0 | 10.0 | 0.00 | 0.00 | 0.00 | 90 | 1013.8 |
| 20260503054504 | 43 | 110 | 4.0 | 8.0 | 0.00 | 0.00 | 0.00 | 92 | 1013.8 |
| 20260503053004 | 43 | 107 | 7.0 | 10.0 | 0.00 | 0.00 | 0.00 | 92 | 1013.8 |
| 20260503051504 | 43 | 108 | 6.0 | 10.0 | 0.00 | 0.00 | 0.00 | 92 | 1013.7 |
| 20260503050005 | 43 | 101 | 4.0 | 8.0 | 0.00 | 0.00 | 0.00 | 92 | 1013.8 |
| 20260503044504 | 43 | 99 | 6.0 | 10.0 | 0.00 | 0.00 | 0.00 | 92 | 1013.8 |
| 20260503043004 | 43 | 98 | 7.0 | 11.0 | 0.00 | 0.00 | 0.00 | 92 | 1013.9 |
| 20260503041504 | 43 | 99 | 6.0 | 11.0 | 0.00 | 0.00 | 0.00 | 92 | 1013.8 |
| 20260503040004 | 43 | 97 | 5.0 | 9.0 | 0.00 | 0.00 | 0.00 | 92 | 1013.8 |
| 20260503034504 | 43 | 100 | 5.0 | 9.0 | 0.00 | 0.00 | 0.00 | 91 | 1013.9 |
| 20260503033004 | 43 | 96 | 5.0 | 8.0 | 0.00 | 0.00 | 0.00 | 91 | 1013.9 |
| 20260503031504 | 43 | 96 | 5.0 | 9.0 | 0.00 | 0.00 | 0.00 | 91 | 1014.0 |
| 20260503030025 | 43 | 93 | 5.0 | 8.0 | 0.00 | 0.00 | 0.00 | 91 | 1014.1 |
| 20260503024504 | 43 | 85 | 6.0 | 10.0 | 0.00 | 0.00 | 0.00 | 91 | 1014.1 |